[[{"header":{"parameterUnit":"m.s-1","parameterCategory":1,"la1":30.2991,"la2":30.254,"lo1":-89.0895,"lo2":-89.0444,"dy":0.0017,"dx":0.0017,"nx":28,"ny":28,"refTime":"2024-07-21T09:00:00:Z","depth":0,"parameterNumber":2,"parameterNumberName":"U-component_of_WINDS"},"data":[0,0,0,0,0,0,0,0,0,0,0,0,0,0,0,0,0,0,0,0,0,0,0,0,0,0,0,0,0,0,0,0,0,0,0,0,0,0,0,0,0,0,0,0,0,0,0,0,0,0,0,0,0,0,0,0,0,0,3.5085,3.5086,0,3.5119,3.5119,3.512,3.5111,3.5111,3.511,3.5109,3.5142,3.5144,3.5145,0,0,0,0,0,0,0,0,0,0,0,0,0,3.5012,3.5014,3.5085,3.5086,3.5086,3.5119,3.5119,3.512,3.5111,3.5111,3.511,3.5109,3.5142,3.5144,3.5145,0,0,0,0,0,0,0,0,0,0,0,0,0,3.5045,3.5014,3.5085,3.5086,3.5086,3.5119,3.5119,3.512,3.5111,3.5111,3.511,3.5109,3.5141,3.5143,3.5146,3.5179,0,0,3.5153,3.5153,0,0,0,0,0,0,0,0,3.5043,3.5048,3.5085,3.5086,3.5086,3.511,3.5106,3.514,3.5112,3.5102,3.5109,3.5108,3.5132,3.5135,3.5144,3.5181,3.5182,3.5153,3.5154,3.5155,3.5156,0,0,0,0,0,0,0,3.5041,3.5046,3.5099,3.5086,3.5087,3.5084,3.5088,3.5112,3.5122,3.5103,3.5102,3.5106,3.5132,3.5141,3.5144,3.5183,3.5153,3.5155,3.5156,3.5157,3.5248,3.5249,0,0,0,0,0,0,3.5038,3.5044,3.5097,3.51,3.5062,3.5086,3.509,3.5103,3.5122,3.5124,3.5107,3.5106,3.5138,3.5142,3.5145,3.5185,3.5155,3.5157,3.5158,3.5247,3.5248,3.5249,0,0,0,0,0,0,3.5037,3.5043,3.5096,3.5072,3.5078,3.5089,3.5103,3.5104,3.5114,3.5125,3.5127,3.5115,3.5138,3.5142,3.5171,3.5186,3.5158,3.516,3.5245,3.5247,3.5249,3.5264,0,0,0,0,0,0,3.5035,3.5043,3.5056,3.5072,3.508,3.5121,3.5104,3.5106,3.5118,3.5116,3.5133,3.5134,3.5137,3.5167,3.5173,3.5188,3.5162,3.5244,3.5246,3.5248,3.5262,3.5266,3.5269,0,0,0,0,0,3.5032,3.5059,3.5056,3.5063,3.5096,3.5122,3.5126,3.5129,3.5119,3.5132,3.5139,3.5134,3.5184,3.517,3.5176,3.5193,3.5243,3.5246,3.5248,3.5261,3.5265,3.5269,0,0,0,0,0,0,3.5043,3.5061,3.5058,3.5091,3.5105,3.5121,3.5137,3.5134,3.5151,3.5149,3.5151,3.5155,3.5184,3.5192,3.5176,3.5226,3.5212,3.5216,3.5219,3.5224,3.5227,3.5224,3.5164,0,0,0,0,0,3.505,3.507,3.5084,3.5111,3.5118,3.5127,3.5138,3.5139,3.5153,3.5159,3.5169,3.5182,3.5201,3.5213,3.5231,3.5264,3.5267,3.5278,3.5282,3.5285,3.5287,3.5304,3.5309,3.5257,3.5257,3.5257,0,0,3.5063,3.5075,3.5087,3.5114,3.5125,3.5145,3.5132,3.5153,3.5168,3.5162,3.5189,3.5197,3.5213,3.5243,3.5257,3.525,3.5303,3.5288,3.529,3.5291,3.5307,3.5312,3.5316,3.5259,3.5258,3.5258,0,0,3.5096,3.5108,3.5132,3.5143,3.516,3.5165,3.5171,3.5187,3.5192,3.5219,3.5215,3.5233,3.5265,3.5276,3.5286,3.5324,3.5319,3.533,3.5348,3.5364,3.5368,3.5372,3.5384,3.5389,3.5333,3.5333,3.5333,0,3.511,3.514,3.5144,3.5166,3.5178,3.5174,3.5198,3.5209,3.523,3.5238,3.5231,3.5271,3.5281,3.5314,3.5323,3.5332,3.5337,3.5327,3.5368,3.5371,3.5375,3.5386,3.5391,3.5334,3.5334,3.5334,3.5334,0,3.5156,3.5177,3.5194,3.5215,3.5229,3.5252,3.5258,3.5272,3.5272,3.5278,3.5305,3.5318,3.5338,3.5346,3.5346,3.5378,3.5373,3.5367,3.5353,3.538,3.5391,3.5396,3.5336,3.5335,3.5335,3.5335,0,0,3.5196,3.522,3.5226,3.5235,3.5254,3.527,3.5292,3.5312,3.5323,3.5339,3.5356,3.5384,3.5378,3.5389,3.5391,3.5406,3.5434,3.5397,3.5397,3.5402,3.5468,3.5472,3.5477,3.5431,3.5432,3.5433,3.5466,0,3.523,3.527,3.5274,3.5309,3.5328,3.5326,3.5345,3.5358,3.5365,3.5381,3.5388,3.5407,3.5399,3.5405,3.542,3.5427,3.5447,3.5425,3.5447,3.5448,3.5441,3.5483,3.5487,3.5518,3.5471,3.5472,3.5472,0,3.5275,3.5292,3.5329,3.5345,3.5353,3.537,3.5388,3.5405,3.542,3.5423,3.5436,3.5436,3.5458,3.5444,3.5475,3.546,3.5469,3.5474,3.5476,3.5476,3.546,3.5483,3.5528,3.5532,3.5479,3.5479,3.5478,0,3.5299,3.5331,3.5357,3.5365,3.5385,3.5397,3.5405,3.5419,3.5431,3.5447,3.5454,3.5473,3.5483,3.5497,3.5501,3.5491,3.5531,3.5518,3.5534,3.5533,3.5541,3.554,3.5586,3.555,3.555,3.5549,3.5549,0,3.5335,3.5358,3.5368,3.5384,3.5409,3.5413,3.5438,3.5446,3.5458,3.5475,3.5475,3.549,3.5496,3.5513,3.5517,3.554,3.5545,3.5548,3.5548,3.5547,3.5547,3.5552,3.5549,3.5551,3.555,3.555,3.555,0,3.5365,3.5373,3.5401,3.5418,3.5422,3.544,3.5453,3.5468,3.5475,3.5496,3.5501,3.5511,3.5531,3.5537,3.5561,3.5563,3.5591,3.559,3.5586,3.5585,3.56,3.5598,3.565,3.5656,3.5617,3.5618,3.5618,0,3.5387,3.5405,3.5423,3.5434,3.5443,3.5462,3.5474,3.5479,3.5492,3.551,3.5523,3.5542,3.5558,3.5589,3.5598,3.5616,3.5615,3.5632,3.5617,3.5615,3.5613,3.5611,3.5612,3.5634,3.5634,3.5634,3.5635,0,3.5425,3.5428,3.5446,3.5464,3.5479,3.5494,3.5508,3.5517,3.5525,3.5539,3.5559,3.5571,3.5595,3.5614,3.5632,3.5641,3.5638,3.5639,3.5644,3.5642,3.5638,3.5639,3.5591,3.5638,3.5637,3.5637,3.5637,3.5637,3.5451,3.5466,3.5481,3.55,3.5512,3.5525,3.554,3.5548,3.5565,3.5585,3.5588,3.5609,3.5623,3.5648,3.5657,3.5673,3.5668,3.5675,3.5676,3.5678,3.5678,3.5637,3.5677,3.5677,3.5677,3.5677,3.5677,0,3.5487,3.5497,3.5515,3.5535,3.555,3.5548,3.5564,3.5576,3.5595,3.5609,3.5624,3.5647,3.5666,3.5676,3.5695,3.5705,3.5705,3.571,3.5708,3.571,3.5682,3.5676,3.571,3.571,3.571,3.571,3.571,3.571,3.5508,3.5533,3.5538,3.5568,3.5577,3.5598,3.5608,3.562,3.5631,3.5656,3.5671,3.5679,3.5691,3.571,3.5727,3.5729,3.5735,3.5741,3.5742,3.5716,3.5712,3.5709,3.5703,3.5742,3.5742,3.5769,3.5769,3.5769]},{"header":{"parameterUnit":"m.s-1","parameterCategory":1,"la1":30.2991,"la2":30.254,"lo1":-89.0895,"lo2":-89.0444,"dy":0.0017,"dx":0.0017,"nx":28,"ny":28,"refTime":"2024-07-21T09:00:00:Z","depth":0,"parameterNumber":3,"parameterNumberName":"V-component_of_WINDS"},"data":[0,0,0,0,0,0,0,0,0,0,0,0,0,0,0,0,0,0,0,0,0,0,0,0,0,0,0,0,0,0,0,0,0,0,0,0,0,0,0,0,0,0,0,0,0,0,0,0,0,0,0,0,0,0,0,0,0,0,1.9383,1.9384,0,1.9486,1.9487,1.9489,1.9551,1.9552,1.9552,1.9552,1.9657,1.966,1.9662,0,0,0,0,0,0,0,0,0,0,0,0,0,1.9237,1.924,1.9383,1.9384,1.9385,1.9486,1.9487,1.9489,1.9551,1.9552,1.9552,1.9552,1.9657,1.9659,1.9662,0,0,0,0,0,0,0,0,0,0,0,0,0,1.9316,1.924,1.9383,1.9429,1.9434,1.9486,1.9487,1.9489,1.9551,1.9552,1.9552,1.9553,1.9656,1.9659,1.9663,1.9677,0,0,1.9674,1.9676,0,0,0,0,0,0,0,0,1.9312,1.9322,1.9421,1.9426,1.9432,1.9506,1.9475,1.9552,1.9551,1.9507,1.9552,1.9553,1.9607,1.9614,1.9633,1.9682,1.9686,1.9675,1.9677,1.9679,1.968,0,0,0,0,0,0,0,1.9306,1.9318,1.9424,1.9422,1.9429,1.9443,1.9455,1.949,1.9553,1.9511,1.9515,1.9527,1.961,1.9629,1.9636,1.9688,1.9675,1.9678,1.968,1.9682,1.975,1.975,0,0,0,0,0,0,1.9294,1.9313,1.9421,1.9427,1.9372,1.9446,1.9459,1.9482,1.9553,1.9564,1.9526,1.9529,1.9622,1.9631,1.964,1.9659,1.9679,1.9682,1.9684,1.975,1.975,1.9749,0,0,0,0,0,0,1.929,1.9303,1.9416,1.9371,1.9387,1.9448,1.9473,1.9484,1.9503,1.9564,1.9576,1.9535,1.9623,1.9634,1.9666,1.9664,1.9684,1.9687,1.9751,1.975,1.975,1.9699,0,0,0,0,0,0,1.9286,1.9301,1.9308,1.9371,1.9389,1.9442,1.9473,1.9485,1.9509,1.9514,1.9575,1.9586,1.9624,1.966,1.967,1.9669,1.969,1.9751,1.9751,1.975,1.9701,1.9697,1.9693,0,0,0,0,0,1.928,1.929,1.9308,1.9321,1.9399,1.9442,1.9452,1.9497,1.9509,1.9516,1.9554,1.9584,1.9662,1.9663,1.9675,1.9675,1.9752,1.9751,1.975,1.9703,1.9698,1.9693,0,0,0,0,0,0,1.9226,1.9299,1.932,1.935,1.9389,1.9453,1.9463,1.949,1.9526,1.9529,1.9582,1.9595,1.9622,1.9652,1.9652,1.969,1.971,1.9711,1.9671,1.9666,1.9662,1.9654,1.9693,0,0,0,0,0,1.9218,1.9247,1.9309,1.933,1.9348,1.9402,1.9422,1.9453,1.9495,1.9512,1.9554,1.9593,1.9627,1.9648,1.9682,1.9705,1.9718,1.971,1.9706,1.9702,1.9703,1.9715,1.9712,1.9746,1.9746,1.9746,0,0,1.9201,1.9244,1.926,1.932,1.9354,1.9382,1.9415,1.9445,1.9466,1.9517,1.955,1.958,1.9628,1.9655,1.9669,1.9681,1.9696,1.9701,1.9698,1.9701,1.9714,1.9711,1.9708,1.9745,1.9746,1.9746,0,0,1.9184,1.9221,1.9241,1.9273,1.9324,1.9359,1.9363,1.9422,1.9444,1.9477,1.9515,1.954,1.9597,1.9629,1.9653,1.9644,1.9671,1.9653,1.9632,1.9643,1.964,1.9638,1.9634,1.9632,1.9653,1.9653,1.9653,0,1.9157,1.9202,1.9248,1.9275,1.9299,1.9345,1.9365,1.9394,1.9453,1.9468,1.948,1.955,1.9586,1.962,1.9617,1.9635,1.9641,1.9648,1.9637,1.9636,1.9634,1.9631,1.9629,1.9651,1.9651,1.9651,1.9652,0,1.9165,1.9196,1.9206,1.9261,1.9286,1.9309,1.9357,1.9377,1.9404,1.9437,1.9469,1.9512,1.9555,1.9565,1.9592,1.9602,1.9607,1.9627,1.9648,1.9628,1.9625,1.9625,1.9647,1.9648,1.9649,1.9649,0,0,1.9121,1.9198,1.9201,1.9226,1.9282,1.9306,1.933,1.9371,1.9387,1.9425,1.9445,1.949,1.9508,1.9535,1.9565,1.9575,1.9563,1.9594,1.9596,1.9586,1.9575,1.956,1.9558,1.9581,1.9581,1.9581,1.9571,0,1.9113,1.9159,1.9199,1.923,1.9257,1.9299,1.932,1.9356,1.9386,1.9413,1.9446,1.9477,1.9499,1.9515,1.9526,1.9562,1.9562,1.9564,1.96,1.9601,1.9588,1.9557,1.9542,1.953,1.957,1.957,1.957,0,1.9111,1.9146,1.9179,1.9231,1.9244,1.9262,1.9301,1.9327,1.9367,1.9389,1.9416,1.9448,1.9473,1.9489,1.9524,1.9524,1.9541,1.9561,1.9561,1.9567,1.9585,1.9562,1.9528,1.9526,1.9569,1.957,1.957,0,1.9075,1.913,1.9156,1.9176,1.9237,1.9248,1.9274,1.9315,1.9336,1.937,1.9384,1.9421,1.9441,1.9467,1.9507,1.9516,1.9537,1.9557,1.9554,1.9553,1.9558,1.9558,1.9527,1.9568,1.9568,1.9568,1.9568,0,1.9062,1.9081,1.9141,1.9157,1.9178,1.9222,1.9242,1.9271,1.9307,1.9328,1.9366,1.9386,1.9436,1.9461,1.9492,1.9515,1.9524,1.9541,1.9549,1.9538,1.9536,1.9551,1.9552,1.9568,1.9568,1.9568,1.9568,0,1.9026,1.9067,1.9098,1.9152,1.9166,1.9179,1.9225,1.9242,1.9273,1.9299,1.9308,1.9357,1.9388,1.9429,1.9473,1.9494,1.9513,1.9525,1.9499,1.9504,1.9498,1.9498,1.9476,1.9475,1.9517,1.9516,1.9516,0,1.9016,1.9031,1.9086,1.9103,1.9127,1.9154,1.9175,1.9218,1.9239,1.9284,1.9295,1.9328,1.9358,1.9405,1.9444,1.9477,1.949,1.948,1.9496,1.9483,1.949,1.9488,1.9489,1.9477,1.9476,1.9476,1.9475,0,1.8993,1.9012,1.9041,1.9076,1.91,1.9131,1.9162,1.9174,1.9223,1.9244,1.9275,1.9298,1.9341,1.9374,1.9411,1.9437,1.9464,1.9469,1.947,1.946,1.9443,1.9451,1.9489,1.947,1.9471,1.9471,1.9471,1.9472,1.897,1.8984,1.9024,1.9055,1.9082,1.911,1.9128,1.916,1.9187,1.9226,1.9249,1.9279,1.9317,1.937,1.9393,1.9417,1.9428,1.9429,1.943,1.943,1.9425,1.9439,1.9424,1.9424,1.9424,1.9424,1.9424,0,1.8949,1.8975,1.9003,1.9045,1.9068,1.909,1.9126,1.9144,1.917,1.9202,1.9229,1.9264,1.9295,1.9334,1.9367,1.9378,1.9391,1.9385,1.9385,1.939,1.9414,1.941,1.9374,1.9374,1.9374,1.9374,1.9374,1.9374,1.894,1.8965,1.8988,1.9025,1.9052,1.9082,1.91,1.9125,1.9151,1.9188,1.9213,1.9239,1.9273,1.9309,1.9337,1.9348,1.9358,1.9348,1.9362,1.9384,1.9389,1.9393,1.9389,1.935,1.935,1.9337,1.9336,1.9336]}]]